Location: Riedlingen
(48.1569°N, 9.4757°E)
Time: 04:34:36
(UTC+02:00)

ISS - Pass Details

Date: 16 May 2021
Orbit: 417 x 422 km, 51.6° (Epoch: 15 June)

Event Time Altitude Azimuth Distance (km) Brightness Sun altitude
Rises 22:49:43 0° 244° (WSW) 2,358 0.2 -14.8°
Reaches altitude 10° 22:51:48 10° 244° (WSW) 1,497 -0.8 -15.0°
Maximum altitude 22:55:10 85° 156° (SSE) 426 -3.9 -15.3°
Drops below altitude 10° 22:58:33 10° 68° (ENE) 1,507 -1.1 -15.6°
Sets 23:00:39 0° 68° (ENE) 2,374 -0.1 -15.8°
